Back to catalog

COSMOS 2251 DEB

AliveLEO
NORAD 34015·DEBRIS·🇷🇺 Russia

Launched Jun 16, 1993 from Plesetsk Cosmodrome

Loading…

Next Passes (next 24 hours)

TLE

FreshSource: Space-Track

Epoch: Sep 14, 2026, 06:05 UTC

1 34015U 93036HA  26257.25392684  .00002698  00000-0  54165-3 0  9994
2 34015  74.0258 352.2746 0021076  16.2851  14.3019 14.62054404925553

Track COSMOS 2251 DEB in real time with AllMySat

Download on the App Store